Anchorage Merrill, AK

10:43 PM AKDT on May 28, 2017 (GMT -0800)
Merrill

Weather History for PAMR - May, 2014

Change the Weather History Date:

Thursday, May 15, 2014

  Actual Average Record
Temperature  
Mean Temperature 54 °F -  
Max Temperature 66 °F 55 °F 73 °F (2016)
Min Temperature 44 °F 38 °F 37 °F (2004)
Degree Days  
Heating Degree Days 11    
Growing Degree Days 4 (Base 50)    
Moisture  
Dew Point 31 °F    
Average Humidity 42    
Maximum Humidity 60    
Minimum Humidity 24    
Precipitation  
Precipitation 0.00 in - - ()
Sea Level Pressure  
Sea Level Pressure 30.37 in    
Wind  
Wind Speed 2 mph (WNW)    
Max Wind Speed 9 mph    
Max Gust Speed -    
Visibility 10 miles    
Events      
Averages and records for this station are not official NWS values.
T = Trace of Precipitation, MM = Missing Value Source: NWS Daily Summary

Daily Weather History Graph

Daily Weather History Graph

Search for Another Location

Airport or City:

Trip Planner

Search our weather history database for the weather conditions in past years. The results will help you decide how hot, cold, wet, or windy it might be!

Date:

Astronomy

May. 15, 2014 Rise Set
Actual Time 5:11 AM AKDT 10:41 PM AKDT
Civil Twilight 4:01 AM AKDT 11:53 PM AKDT
Nautical Twilight 2:28 AM AKDT 1:23 AM AKDT
Astronomical Twilight Sun does not set Sun does not set
Moon 11:57 PM AKDT (5/15) 6:13 AM AKDT (5/15)
Length of Visible Light 19h 51m
Length of Day
17h 29m
Full, 99% of the Moon is Illuminated
May 15
Full
May 21
Last Quarter
May 28
New
Jun 5
First Quarter
Jun 12
Full

Hourly Weather History & Observations

Time (AKDT) Temp. Dew Point Humidity Pressure Visibility Wind Dir Wind Speed Gust Speed Precip Events Conditions
12:53 AM 53.1 °F 27.0 °F 37% 30.38 in 10.0 mi Calm Calm - N/A   Clear
1:53 AM 50.0 °F 30.0 °F 46% 30.39 in 10.0 mi Calm Calm - N/A   Clear
2:53 AM 46.9 °F 30.0 °F 52% 30.40 in 10.0 mi Calm Calm - N/A   Partly Cloudy
3:53 AM 48.0 °F 30.0 °F 50% 30.41 in 10.0 mi Calm Calm - N/A   Partly Cloudy
4:53 AM 50.0 °F 28.0 °F 43% 30.42 in 10.0 mi Calm Calm - N/A   Partly Cloudy
5:53 AM 44.1 °F 30.0 °F 58% 30.43 in 10.0 mi Calm Calm - N/A   Partly Cloudy
6:53 AM 45.0 °F 32.0 °F 60% 30.43 in 10.0 mi Calm Calm - N/A   Partly Cloudy
7:53 AM 50.0 °F 34.0 °F 54% 30.43 in 10.0 mi Calm Calm - N/A   Clear
8:53 AM 55.0 °F 34.0 °F 45% 30.43 in 10.0 mi Calm Calm - N/A   Clear
9:53 AM 55.9 °F 35.1 °F 45% 30.43 in 10.0 mi WNW 4.6 mph - N/A   Clear
11:53 AM 61.0 °F 33.1 °F 35% 30.41 in 10.0 mi WNW 5.8 mph - N/A   Clear
12:53 PM 61.0 °F 30.0 °F 31% 30.41 in 10.0 mi West 9.2 mph - N/A   Clear
1:53 PM 64.9 °F 30.0 °F 27% 30.40 in 10.0 mi West 6.9 mph - N/A   Clear
2:53 PM 64.9 °F 28.0 °F 25% 30.38 in 10.0 mi West 8.1 mph - N/A   Clear
3:53 PM 64.0 °F 26.1 °F 24% 30.37 in 10.0 mi West 8.1 mph - N/A   Clear
4:53 PM 64.0 °F 30.0 °F 28% 30.35 in 10.0 mi West 8.1 mph - N/A   Clear
5:53 PM 63.0 °F 27.0 °F 26% 30.34 in 10.0 mi West 6.9 mph - N/A   Clear
6:53 PM 57.0 °F 35.1 °F 44% 30.32 in 10.0 mi WNW 6.9 mph - N/A   Clear
7:53 PM 57.0 °F 34.0 °F 42% 30.30 in 10.0 mi NW 4.6 mph - N/A   Clear
8:53 PM 55.0 °F 35.1 °F 47% 30.30 in 10.0 mi NW 3.5 mph - N/A   Scattered Clouds
9:53 PM 55.9 °F 32.0 °F 40% 30.30 in 10.0 mi Calm Calm - N/A   Partly Cloudy
10:53 PM 54.0 °F 34.0 °F 47% 30.29 in 10.0 mi SE 3.5 mph - N/A   Clear
11:53 PM 52.0 °F 34.0 °F 50% 30.28 in 10.0 mi Calm Calm - N/A   Scattered Clouds